Thief River Falls, MN

12:50 PM CDT on September 27, 2016 (GMT -0500)
Thief River Falls Regional

Weather History for KTVF - December, 2011

Change the Weather History Date:

Monday, December 19, 2011

  Actual Average Record
Temperature  
Mean Temperature 24 °F -  
Max Temperature 26 °F 15 °F 36 °F (1977)
Min Temperature 21 °F 2 °F -29 °F (1989)
Degree Days  
Heating Degree Days 42    
Moisture  
Dew Point 17 °F    
Average Humidity 75    
Maximum Humidity 86    
Minimum Humidity 64    
Precipitation  
Precipitation 0.00 in - - ()
Sea Level Pressure  
Sea Level Pressure 30.15 in    
Wind  
Wind Speed 14 mph (NW)    
Max Wind Speed 24 mph    
Max Gust Speed 29 mph    
Visibility 10 miles    
Events      
Averages and records for this station are not official NWS values.
T = Trace of Precipitation, MM = Missing Value Source: NWS Daily Summary

Daily Weather History Graph

Daily Weather History Graph

Search for Another Location

Airport or City:

Trip Planner

Search our weather history database for the weather conditions in past years. The results will help you decide how hot, cold, wet, or windy it might be!

Date:

Astronomy

Dec. 19, 2011 Rise Set
Actual Time 8:10 AM CST 4:32 PM CST
Civil Twilight 7:34 AM CST 5:09 PM CST
Nautical Twilight 6:54 AM CST 5:49 PM CST
Astronomical Twilight 6:16 AM CST 6:26 PM CST
Moon 2:05 AM CST (12/19) 12:46 PM CST (12/19)
Length of Visible Light 9h 35m
Length of Day
8h 22m
Waning Crescent, 31% of the Moon is Illuminated
Dec 19
Waning Crescent
Dec 24
New
Jan 1
First Quarter
Jan 9
Full
Jan 16
Last Quarter

Hourly Weather History & Observations

Time (CST) Temp. Windchill Dew Point Humidity Pressure Visibility Wind Dir Wind Speed Gust Speed Precip Events Conditions
12:15 AM 26.6 °F 13.4 °F 21.2 °F 80% 29.92 in 10.0 mi NNW 18.4 mph 21.9 mph N/A   Overcast
12:35 AM 26.6 °F 11.7 °F 19.4 °F 74% 29.93 in 10.0 mi NW 24.2 mph 28.8 mph N/A   Overcast
1:15 AM 23.0 °F 8.7 °F 15.8 °F 74% 29.95 in 10.0 mi NW 18.4 mph 25.3 mph N/A   Partly Cloudy
1:35 AM 23.0 °F 8.7 °F 17.6 °F 80% 29.95 in 10.0 mi NW 18.4 mph 23.0 mph N/A   Scattered Clouds
1:55 AM 23.0 °F 8.7 °F 17.6 °F 80% 29.96 in 10.0 mi NNW 18.4 mph - N/A   Scattered Clouds
2:15 AM 23.0 °F 10.1 °F 17.6 °F 80% 29.96 in 10.0 mi NNW 15.0 mph 21.9 mph N/A   Clear
2:55 AM 21.2 °F 8.9 °F 17.6 °F 86% 29.99 in 10.0 mi NW 12.7 mph - N/A   Clear
3:15 AM 21.2 °F 9.5 °F 17.6 °F 86% 30.01 in 10.0 mi NW 11.5 mph 16.1 mph N/A   Clear
3:35 AM 21.2 °F 8.3 °F 17.6 °F 86% 30.02 in 10.0 mi NW 13.8 mph - N/A   Mostly Cloudy
3:55 AM 21.2 °F 10.1 °F 17.6 °F 86% 30.02 in 10.0 mi NW 10.4 mph - N/A   Overcast
4:15 AM 23.0 °F 10.6 °F 17.6 °F 80% 30.03 in 10.0 mi NW 13.8 mph - N/A   Overcast
4:35 AM 23.0 °F 9.6 °F 17.6 °F 80% 30.04 in 10.0 mi NW 16.1 mph - N/A   Overcast
4:55 AM 23.0 °F 10.6 °F 17.6 °F 80% 30.05 in 10.0 mi NW 13.8 mph - N/A   Overcast
5:15 AM 23.0 °F 9.2 °F 15.8 °F 74% 30.06 in 10.0 mi NW 17.3 mph - N/A   Overcast
5:35 AM 23.0 °F 10.1 °F 17.6 °F 80% 30.07 in 10.0 mi NW 15.0 mph - N/A   Overcast
5:55 AM 23.0 °F 8.7 °F 17.6 °F 80% 30.07 in 10.0 mi NW 18.4 mph 21.9 mph N/A   Overcast
6:15 AM 23.0 °F 9.2 °F 17.6 °F 80% 30.09 in 10.0 mi NW 17.3 mph 20.7 mph N/A   Overcast
6:35 AM 23.0 °F 8.7 °F 17.6 °F 80% 30.10 in 10.0 mi NNW 18.4 mph 23.0 mph N/A   Overcast
6:55 AM 23.0 °F 9.2 °F 17.6 °F 80% 30.11 in 10.0 mi NNW 17.3 mph - N/A   Overcast
7:15 AM 23.0 °F 10.6 °F 15.8 °F 74% 30.13 in 10.0 mi NNW 13.8 mph - N/A   Overcast
7:35 AM 23.0 °F 10.6 °F 15.8 °F 74% 30.14 in 10.0 mi NNW 13.8 mph - N/A   Overcast
7:55 AM 23.0 °F 11.1 °F 17.6 °F 80% 30.15 in 10.0 mi NNW 12.7 mph 18.4 mph N/A   Overcast
8:15 AM 23.0 °F 11.1 °F 17.6 °F 80% 30.16 in 10.0 mi NNW 12.7 mph - N/A   Overcast
8:35 AM 23.0 °F 11.7 °F 17.6 °F 80% 30.17 in 10.0 mi NNW 11.5 mph - N/A   Overcast
8:55 AM 23.0 °F 11.7 °F 17.6 °F 80% 30.17 in 10.0 mi NNW 11.5 mph 16.1 mph N/A   Overcast
9:15 AM 23.0 °F 12.4 °F 17.6 °F 80% 30.19 in 10.0 mi NNW 10.4 mph - N/A   Overcast
9:55 AM 23.0 °F 11.7 °F 15.8 °F 74% 30.21 in 10.0 mi NNW 11.5 mph - N/A   Overcast
10:15 AM 24.8 °F 13.4 °F 17.6 °F 74% 30.22 in 10.0 mi NNW 12.7 mph - N/A   Overcast
10:35 AM 24.8 °F 12.4 °F 15.8 °F 69% 30.23 in 10.0 mi NNW 15.0 mph - N/A   Overcast
10:55 AM 24.8 °F 13.4 °F 15.8 °F 69% 30.23 in 10.0 mi NNW 12.7 mph - N/A   Overcast
11:15 AM 24.8 °F 14.6 °F 17.6 °F 74% 30.23 in 10.0 mi NW 10.4 mph - N/A   Overcast
11:35 AM 24.8 °F 13.4 °F 15.8 °F 69% 30.23 in 10.0 mi NNW 12.7 mph - N/A   Overcast
11:55 AM 24.8 °F 14.0 °F 17.6 °F 74% 30.23 in 10.0 mi NNW 11.5 mph - N/A   Overcast
12:15 PM 24.8 °F 14.6 °F 15.8 °F 69% 30.23 in 10.0 mi NNW 10.4 mph - N/A   Overcast
12:55 PM 24.8 °F 13.4 °F 15.8 °F 69% 30.24 in 10.0 mi NW 12.7 mph 17.3 mph N/A   Overcast
1:15 PM 24.8 °F 12.9 °F 15.8 °F 69% 30.24 in 10.0 mi WNW 13.8 mph 18.4 mph N/A   Overcast
1:35 PM 24.8 °F 12.9 °F 17.6 °F 74% 30.24 in 10.0 mi NW 13.8 mph - N/A   Overcast
1:55 PM 24.8 °F 12.9 °F 17.6 °F 74% 30.25 in 10.0 mi NW 13.8 mph - N/A   Overcast
2:15 PM 26.6 °F 16.8 °F 15.8 °F 64% 30.25 in 10.0 mi NW 10.4 mph - N/A   Overcast
2:35 PM 26.6 °F 16.2 °F 15.8 °F 64% 30.25 in 10.0 mi NW 11.5 mph - N/A   Overcast
2:55 PM 24.8 °F 13.4 °F 17.6 °F 74% 30.25 in 10.0 mi WNW 12.7 mph - N/A   Overcast
3:15 PM 24.8 °F 13.4 °F 15.8 °F 69% 30.25 in 10.0 mi NW 12.7 mph - N/A   Overcast
3:35 PM 24.8 °F 16.9 °F 15.8 °F 69% 30.25 in 10.0 mi WNW 6.9 mph - N/A   Overcast
3:55 PM 24.8 °F 15.3 °F 15.8 °F 69% 30.24 in 10.0 mi WNW 9.2 mph - N/A   Overcast
4:15 PM 24.8 °F 14.6 °F 15.8 °F 69% 30.25 in 10.0 mi WNW 10.4 mph - N/A   Overcast
4:35 PM 24.8 °F 16.1 °F 15.8 °F 69% 30.24 in 10.0 mi West 8.1 mph - N/A   Overcast
4:55 PM 24.8 °F 16.9 °F 15.8 °F 69% 30.25 in 10.0 mi West 6.9 mph - N/A   Overcast
5:15 PM 24.8 °F 16.9 °F 15.8 °F 69% 30.24 in 10.0 mi West 6.9 mph - N/A   Overcast
5:35 PM 24.8 °F 17.9 °F 15.8 °F 69% 30.25 in 10.0 mi WSW 5.8 mph - N/A   Overcast
5:55 PM 24.8 °F 19.1 °F 15.8 °F 69% 30.24 in 10.0 mi WSW 4.6 mph - N/A   Overcast
6:15 PM 24.8 °F 19.1 °F 15.8 °F 69% 30.24 in 10.0 mi SW 4.6 mph - N/A   Overcast
6:35 PM 24.8 °F 20.5 °F 15.8 °F 69% 30.24 in 10.0 mi SW 3.5 mph - N/A   Overcast
7:15 PM 24.8 °F 15.3 °F 15.8 °F 69% 30.22 in 10.0 mi SSW 9.2 mph - N/A   Overcast
7:35 PM 24.8 °F 15.3 °F 15.8 °F 69% 30.20 in 10.0 mi South 9.2 mph - N/A   Overcast
7:55 PM 23.0 °F 14.7 °F 15.8 °F 74% 30.20 in 10.0 mi South 6.9 mph - N/A   Overcast
8:15 PM 24.8 °F 16.9 °F 15.8 °F 69% 30.20 in 10.0 mi SSW 6.9 mph - N/A   Overcast
8:35 PM 23.0 °F 13.9 °F 15.8 °F 74% 30.18 in 10.0 mi South 8.1 mph - N/A   Overcast
8:55 PM 21.2 °F 11.7 °F 12.2 °F 68% 30.19 in 10.0 mi South 8.1 mph - N/A   Mostly Cloudy
9:15 PM 17.6 °F 7.3 °F 12.2 °F 79% 30.19 in 10.0 mi SSW 8.1 mph - N/A   Clear
9:35 PM 17.6 °F 6.4 °F 12.2 °F 79% 30.18 in 10.0 mi SSW 9.2 mph - N/A   Clear
9:55 PM 19.4 °F 7.9 °F 12.2 °F 74% 30.18 in 10.0 mi SSW 10.4 mph - N/A   Clear
10:15 PM 19.4 °F 8.6 °F 12.2 °F 74% 30.17 in 10.0 mi SSW 9.2 mph - N/A   Clear
10:35 PM 17.6 °F 7.3 °F 12.2 °F 79% 30.17 in 10.0 mi SSW 8.1 mph - N/A   Clear
10:55 PM 19.4 °F 7.2 °F 14.0 °F 80% 30.17 in 10.0 mi SSW 11.5 mph - N/A   Clear
11:15 PM 19.4 °F 6.6 °F 12.2 °F 74% 30.17 in 10.0 mi SSW 12.7 mph - N/A   Clear
11:35 PM 19.4 °F 6.0 °F 14.0 °F 80% 30.15 in 10.0 mi SSW 13.8 mph - N/A   Clear
11:55 PM 19.4 °F 6.0 °F 12.2 °F 74% 30.15 in 10.0 mi SSW 13.8 mph - N/A   Clear